[[{"header":{"parameterUnit":"m.s-1","parameterCategory":1,"la1":30.2991,"la2":30.254,"lo1":-89.0895,"lo2":-89.0444,"dy":0.0017,"dx":0.0017,"nx":28,"ny":28,"refTime":"2024-04-28T21:00:00:Z","depth":0,"parameterNumber":2,"parameterNumberName":"U-component_of_WINDS"},"data":[0,0,0,0,0,0,0,0,0,0,0,0,0,0,0,0,0,0,0,0,0,0,0,0,0,0,0,0,0,0,0,0,0,0,0,0,0,0,0,0,0,0,0,0,0,0,0,0,0,0,0,0,0,0,0,0,0,0,-4.6005,-4.6005,0,-4.6068,-4.6069,-4.6069,-4.6069,-4.6069,-4.6068,-4.6067,-4.6128,-4.613,-4.6132,0,0,0,0,0,0,0,0,0,0,0,0,0,-4.588,-4.5882,-4.6004,-4.6005,-4.6006,-4.6068,-4.6069,-4.607,-4.607,-4.6069,-4.6068,-4.6067,-4.6127,-4.613,-4.6132,0,0,0,0,0,0,0,0,0,0,0,0,0,-4.5938,-4.5883,-4.6004,-4.6014,-4.6015,-4.6068,-4.6069,-4.607,-4.607,-4.6069,-4.6067,-4.6066,-4.6126,-4.6129,-4.6133,-4.6179,0,0,-4.6144,-4.6145,0,0,0,0,0,0,0,0,-4.5934,-4.5942,-4.6011,-4.6013,-4.6015,-4.606,-4.6047,-4.6106,-4.607,-4.6049,-4.6067,-4.6066,-4.6106,-4.6111,-4.6125,-4.6182,-4.6184,-4.6144,-4.6146,-4.6148,-4.6149,0,0,0,0,0,0,0,-4.5931,-4.594,-4.6029,-4.6012,-4.6015,-4.6014,-4.602,-4.6058,-4.6083,-4.6051,-4.6051,-4.6059,-4.6106,-4.6122,-4.6127,-4.6185,-4.6144,-4.6147,-4.6149,-4.6151,-4.6283,-4.6284,0,0,0,0,0,0,-4.5925,-4.5936,-4.6027,-4.6031,-4.5971,-4.6017,-4.6024,-4.6046,-4.6083,-4.6087,-4.6059,-4.6058,-4.6116,-4.6122,-4.6129,-4.6184,-4.6148,-4.6151,-4.6153,-4.6281,-4.6283,-4.6284,0,0,0,0,0,0,-4.5923,-4.5933,-4.6025,-4.5984,-4.5996,-4.602,-4.6045,-4.6048,-4.6064,-4.609,-4.6094,-4.6071,-4.6116,-4.6124,-4.6167,-4.6186,-4.6152,-4.6156,-4.628,-4.6282,-4.6284,-4.6296,0,0,0,0,0,0,-4.5919,-4.5932,-4.5951,-4.5984,-4.5998,-4.6063,-4.6046,-4.605,-4.607,-4.6069,-4.6101,-4.6105,-4.6115,-4.6161,-4.617,-4.6191,-4.6158,-4.6278,-4.6281,-4.6283,-4.6294,-4.6299,-4.6302,0,0,0,0,0,-4.5915,-4.5951,-4.5952,-4.5963,-4.6021,-4.6064,-4.6071,-4.6083,-4.6072,-4.609,-4.6107,-4.6104,-4.6184,-4.6166,-4.6176,-4.6197,-4.6277,-4.628,-4.6283,-4.6292,-4.6298,-4.6302,0,0,0,0,0,0,-4.5917,-4.5955,-4.5957,-4.6005,-4.6032,-4.6064,-4.6087,-4.6089,-4.6117,-4.6115,-4.6127,-4.6135,-4.6177,-4.6192,-4.6172,-4.6244,-4.6229,-4.6234,-4.6232,-4.6238,-4.6242,-4.6236,-4.6161,0,0,0,0,0,-4.5923,-4.5956,-4.5987,-4.6027,-4.604,-4.6062,-4.608,-4.6088,-4.6115,-4.6125,-4.6145,-4.617,-4.6201,-4.6221,-4.625,-4.6298,-4.6304,-4.6318,-4.6322,-4.6325,-4.6328,-4.6354,-4.636,-4.6295,-4.6295,-4.6295,0,0,-4.5936,-4.5961,-4.5981,-4.6028,-4.6049,-4.6081,-4.6071,-4.6105,-4.6128,-4.613,-4.6172,-4.6188,-4.6217,-4.6262,-4.6283,-4.6275,-4.6348,-4.6329,-4.6331,-4.6333,-4.6358,-4.6364,-4.6369,-4.6297,-4.6296,-4.6296,0,0,-4.5976,-4.5999,-4.6034,-4.6056,-4.6089,-4.6104,-4.6112,-4.6145,-4.6156,-4.6199,-4.6201,-4.6229,-4.6281,-4.6302,-4.6319,-4.6369,-4.6367,-4.6378,-4.6398,-4.6423,-4.6428,-4.6433,-4.6449,-4.6455,-4.6382,-4.6382,-4.6382,0,-4.5987,-4.6037,-4.6052,-4.6087,-4.6107,-4.6113,-4.6148,-4.6168,-4.6208,-4.6222,-4.6214,-4.6281,-4.6301,-4.635,-4.6363,-4.6377,-4.6386,-4.6373,-4.6427,-4.6431,-4.6436,-4.6451,-4.6458,-4.6383,-4.6383,-4.6383,-4.6383,0,-4.6048,-4.6083,-4.6107,-4.6148,-4.6171,-4.6206,-4.6226,-4.6248,-4.6254,-4.6268,-4.6312,-4.6337,-4.6371,-4.6384,-4.639,-4.6435,-4.6429,-4.6424,-4.6408,-4.6443,-4.6457,-4.6464,-4.6385,-4.6384,-4.6384,-4.6384,0,0,-4.6088,-4.6138,-4.6147,-4.6165,-4.6203,-4.623,-4.6265,-4.6301,-4.6318,-4.6347,-4.6376,-4.6421,-4.6417,-4.6437,-4.6445,-4.6467,-4.6504,-4.6459,-4.646,-4.6465,-4.6554,-4.6556,-4.6563,-4.6504,-4.6505,-4.6506,-4.6551,0,-4.613,-4.6194,-4.6209,-4.6263,-4.6295,-4.6301,-4.6332,-4.6358,-4.6373,-4.6402,-4.6418,-4.645,-4.6443,-4.6455,-4.6477,-4.6494,-4.6521,-4.6492,-4.6529,-4.653,-4.6519,-4.6571,-4.6573,-4.6613,-4.6557,-4.6558,-4.6559,0,-4.6187,-4.6218,-4.6276,-4.631,-4.6324,-4.6351,-4.6385,-4.6413,-4.6442,-4.6452,-4.6475,-4.6482,-4.6518,-4.6503,-4.6552,-4.6531,-4.6548,-4.6559,-4.6561,-4.6563,-4.6544,-4.6572,-4.6627,-4.6632,-4.6568,-4.6567,-4.6567,0,-4.6208,-4.6265,-4.6306,-4.6322,-4.6364,-4.6383,-4.6401,-4.643,-4.645,-4.648,-4.6493,-4.6527,-4.6544,-4.6569,-4.6584,-4.6572,-4.6632,-4.6618,-4.6639,-4.6639,-4.6649,-4.6648,-4.6705,-4.6664,-4.6664,-4.6664,-4.6664,0,-4.6252,-4.6286,-4.6316,-4.6342,-4.638,-4.6398,-4.6436,-4.6454,-4.648,-4.6508,-4.6516,-4.6542,-4.6562,-4.659,-4.6602,-4.664,-4.6649,-4.6656,-4.6659,-4.6654,-4.6653,-4.6663,-4.666,-4.6665,-4.6665,-4.6665,-4.6665,0,-4.6281,-4.6303,-4.6348,-4.6385,-4.6395,-4.6422,-4.6452,-4.6477,-4.6494,-4.6529,-4.6538,-4.6564,-4.6598,-4.6617,-4.6659,-4.6667,-4.671,-4.6711,-4.67,-4.67,-4.672,-4.6717,-4.6784,-4.6793,-4.6748,-4.6748,-4.6748,0,-4.6306,-4.6333,-4.6373,-4.6393,-4.6412,-4.6445,-4.6466,-4.6485,-4.6507,-4.6544,-4.6564,-4.6599,-4.6628,-4.6682,-4.6704,-4.6736,-4.6738,-4.6759,-4.6742,-4.6737,-4.6736,-4.6733,-4.6735,-4.6761,-4.6761,-4.6762,-4.6762,0,-4.6348,-4.6358,-4.639,-4.6426,-4.6452,-4.6481,-4.6509,-4.6525,-4.6548,-4.6573,-4.6609,-4.6631,-4.6676,-4.671,-4.6745,-4.6762,-4.6765,-4.6768,-4.6774,-4.6769,-4.676,-4.6763,-4.6705,-4.6765,-4.6765,-4.6765,-4.6765,-4.6764,-4.6375,-4.6399,-4.6432,-4.6466,-4.649,-4.6517,-4.6542,-4.6563,-4.6593,-4.6632,-4.6641,-4.6679,-4.6709,-4.6756,-4.6775,-4.6804,-4.6799,-4.6809,-4.6811,-4.6812,-4.6812,-4.6758,-4.681,-4.681,-4.681,-4.681,-4.681,0,-4.6416,-4.6438,-4.647,-4.651,-4.6538,-4.6542,-4.6574,-4.6596,-4.6629,-4.6657,-4.6686,-4.6728,-4.6761,-4.6787,-4.6821,-4.6839,-4.6842,-4.6848,-4.6845,-4.6849,-4.6815,-4.6805,-4.6845,-4.6845,-4.6845,-4.6845,-4.6845,-4.6845,-4.6441,-4.6482,-4.6496,-4.6548,-4.657,-4.6608,-4.6625,-4.665,-4.6672,-4.6718,-4.6747,-4.6764,-4.6791,-4.6828,-4.6859,-4.6865,-4.6877,-4.6882,-4.6888,-4.6855,-4.6851,-4.6848,-4.6838,-4.6885,-4.6885,-4.692,-4.692,-4.692]},{"header":{"parameterUnit":"m.s-1","parameterCategory":1,"la1":30.2991,"la2":30.254,"lo1":-89.0895,"lo2":-89.0444,"dy":0.0017,"dx":0.0017,"nx":28,"ny":28,"refTime":"2024-04-28T21:00:00:Z","depth":0,"parameterNumber":3,"parameterNumberName":"V-component_of_WINDS"},"data":[0,0,0,0,0,0,0,0,0,0,0,0,0,0,0,0,0,0,0,0,0,0,0,0,0,0,0,0,0,0,0,0,0,0,0,0,0,0,0,0,0,0,0,0,0,0,0,0,0,0,0,0,0,0,0,0,0,0,4.4664,4.4664,0,4.4736,4.4737,4.4738,4.4776,4.4776,4.4776,4.4777,4.4846,4.4848,4.485,0,0,0,0,0,0,0,0,0,0,0,0,0,4.4556,4.4558,4.4664,4.4665,4.4665,4.4736,4.4737,4.4738,4.4776,4.4776,4.4776,4.4777,4.4846,4.4848,4.485,0,0,0,0,0,0,0,0,0,0,0,0,0,4.4613,4.4558,4.4663,4.4693,4.4697,4.4736,4.4737,4.4738,4.4776,4.4776,4.4776,4.4777,4.4845,4.4848,4.485,4.4864,0,0,4.4859,4.486,0,0,0,0,0,0,0,0,4.461,4.4617,4.4688,4.4691,4.4695,4.4747,4.4725,4.478,4.4776,4.4746,4.4777,4.4777,4.4813,4.4818,4.4832,4.4868,4.4871,4.4859,4.486,4.4862,4.4862,0,0,0,0,0,0,0,4.4606,4.4614,4.4692,4.4689,4.4693,4.4702,4.471,4.4736,4.4778,4.4748,4.4751,4.476,4.4815,4.4829,4.4833,4.4872,4.4859,4.4861,4.4863,4.4864,4.4925,4.4926,0,0,0,0,0,0,4.4597,4.461,4.469,4.4694,4.4652,4.4704,4.4713,4.473,4.4778,4.4785,4.476,4.4761,4.4824,4.483,4.4836,4.4857,4.4862,4.4864,4.4866,4.4925,4.4925,4.4926,0,0,0,0,0,0,4.4595,4.4604,4.4687,4.4653,4.4665,4.4706,4.4725,4.4732,4.4746,4.4786,4.4793,4.4766,4.4825,4.4832,4.4858,4.486,4.4865,4.4868,4.4925,4.4925,4.4926,4.4899,0,0,0,0,0,0,4.4592,4.4603,4.4609,4.4653,4.4666,4.4708,4.4725,4.4733,4.4751,4.4754,4.4794,4.4801,4.4825,4.4854,4.4861,4.4864,4.487,4.4925,4.4925,4.4925,4.4899,4.4898,4.4896,0,0,0,0,0,4.4588,4.4597,4.4609,4.4618,4.4675,4.4708,4.4715,4.4745,4.4751,4.4757,4.4784,4.48,4.4859,4.4856,4.4864,4.4868,4.4925,4.4925,4.4925,4.49,4.4898,4.4896,0,0,0,0,0,0,4.455,4.4603,4.4617,4.4641,4.467,4.4715,4.4723,4.4741,4.4767,4.4769,4.4803,4.4811,4.4834,4.4854,4.485,4.4886,4.4894,4.4896,4.4872,4.487,4.4869,4.4863,4.4872,0,0,0,0,0,4.4545,4.4568,4.4613,4.463,4.4644,4.4681,4.4697,4.4717,4.4748,4.476,4.4788,4.4816,4.4841,4.4857,4.4882,4.4903,4.4913,4.491,4.4908,4.4907,4.4908,4.4922,4.4922,4.4926,4.4926,4.4926,0,0,4.4533,4.4566,4.4578,4.4624,4.4648,4.4672,4.4691,4.4714,4.4732,4.4763,4.4789,4.4811,4.4845,4.4869,4.4881,4.4886,4.4909,4.4907,4.4905,4.4907,4.4922,4.4922,4.4921,4.4926,4.4926,4.4926,0,0,4.4525,4.4551,4.457,4.4595,4.4633,4.4658,4.4663,4.4705,4.4721,4.4749,4.4774,4.4795,4.4837,4.4861,4.4878,4.4882,4.4899,4.4889,4.4881,4.4894,4.4894,4.4894,4.4896,4.4897,4.489,4.489,4.489,0,4.4506,4.4543,4.4576,4.4599,4.4619,4.465,4.4669,4.4691,4.4735,4.4748,4.4753,4.4809,4.4834,4.4865,4.4866,4.4879,4.4885,4.4885,4.4892,4.4892,4.4892,4.4895,4.4896,4.4889,4.4889,4.4889,4.4889,0,4.4518,4.4544,4.4554,4.4598,4.4619,4.4639,4.4675,4.4692,4.4712,4.4736,4.4765,4.4796,4.4829,4.4838,4.4856,4.4872,4.4874,4.4885,4.4894,4.489,4.4893,4.4894,4.4887,4.4887,4.4888,4.4888,0,0,4.4486,4.4551,4.4554,4.4575,4.4621,4.4641,4.4664,4.4698,4.4713,4.4742,4.4762,4.4799,4.481,4.483,4.4851,4.4863,4.4866,4.4873,4.4874,4.4871,4.4888,4.4879,4.488,4.4878,4.4878,4.4878,4.4885,0,4.4485,4.4528,4.456,4.4591,4.4616,4.4647,4.4667,4.4697,4.4721,4.4745,4.4771,4.4797,4.481,4.4822,4.4835,4.4863,4.487,4.4863,4.4896,4.4897,4.4887,4.4881,4.4872,4.4877,4.4886,4.4887,4.4887,0,4.4489,4.452,4.4554,4.46,4.4611,4.4629,4.4664,4.4687,4.4722,4.4739,4.4763,4.4785,4.481,4.4818,4.4853,4.4848,4.4863,4.4879,4.488,4.4884,4.4891,4.4886,4.4879,4.488,4.4889,4.4889,4.4888,0,4.4464,4.4514,4.4542,4.4559,4.4612,4.4624,4.4647,4.4682,4.4702,4.4732,4.4745,4.4778,4.4795,4.482,4.4851,4.4853,4.4884,4.4893,4.4898,4.4897,4.4903,4.4902,4.4899,4.4912,4.4912,4.4912,4.4912,0,4.4459,4.4479,4.4531,4.4548,4.4572,4.4608,4.463,4.4655,4.4687,4.4709,4.4738,4.4758,4.4797,4.4822,4.4846,4.4873,4.488,4.4894,4.49,4.4892,4.489,4.4902,4.4903,4.4912,4.4912,4.4912,4.4912,0,4.4434,4.447,4.4503,4.4552,4.4565,4.458,4.4622,4.4639,4.4666,4.4694,4.4702,4.4744,4.4775,4.4808,4.4849,4.4866,4.4892,4.49,4.488,4.4884,4.4888,4.4887,4.4892,4.4895,4.4906,4.4906,4.4906,0,4.4429,4.4446,4.4498,4.4516,4.4538,4.4566,4.4587,4.4624,4.4645,4.4688,4.47,4.4734,4.4763,4.4811,4.4844,4.4876,4.4886,4.4886,4.4891,4.4883,4.4887,4.4886,4.4888,4.4884,4.4884,4.4883,4.4883,0,4.4417,4.4434,4.4464,4.4501,4.4526,4.4556,4.4587,4.46,4.4643,4.4665,4.4698,4.4721,4.4765,4.4798,4.4835,4.4858,4.4878,4.4882,4.4885,4.4876,4.4865,4.4872,4.4876,4.4881,4.4881,4.4881,4.4882,4.4882,4.4402,4.4419,4.4459,4.4492,4.452,4.4549,4.4569,4.46,4.4628,4.4669,4.4688,4.4722,4.4758,4.4811,4.4833,4.486,4.4865,4.4869,4.4871,4.4871,4.487,4.4861,4.4866,4.4866,4.4866,4.4867,4.4867,0,4.4392,4.442,4.445,4.4495,4.4521,4.4539,4.4576,4.4596,4.4626,4.4659,4.4688,4.4727,4.476,4.4797,4.4832,4.4846,4.4856,4.4854,4.4854,4.4859,4.4862,4.4856,4.4846,4.4846,4.4846,4.4846,4.4846,4.4846,4.439,4.442,4.4443,4.4488,4.4516,4.455,4.4569,4.4597,4.4624,4.4667,4.4695,4.472,4.4755,4.4794,4.4825,4.4835,4.4847,4.4842,4.4855,4.4857,4.4858,4.486,4.4855,4.4844,4.4844,4.485,4.485,4.485]}]]